Location: Newark
(40.2531°N, 0.7525°W)
Time: 14:13:52
(UTC+00:00)

NUDT-PHONESAT - Visible Passes

Search period start: 13 December 2019 00:00
Search period end: 23 December 2019 00:00
Orbit: 488 x 503 km, 97.4° (Epoch: 13 December)

Date Brightness Start Highest point End Pass type
(mag) Time Alt. Az. Time Alt. Az. Time Alt. Az.
13 Dec ? 05:41:59 10° NE 05:44:25 17° E 05:46:50 10° SE visible
13 Dec ? 17:51:01 10° S 17:54:40 80° WSW 17:58:22 10° NNW visible
14 Dec ? 17:30:09 10° SSE 17:33:42 52° ENE 17:37:19 10° N visible
15 Dec ? 06:32:33 10° NNE 06:36:16 77° ESE 06:39:57 10° S visible
15 Dec ? 17:09:39 10° SE 17:12:50 28° ENE 17:16:02 10° N visible
15 Dec ? 18:44:03 10° SW 18:46:30 17° W 18:48:59 10° NW visible
16 Dec ? 06:11:45 10° NNE 06:15:15 39° E 06:18:43 10° S visible
16 Dec ? 18:22:07 10° SSW 18:25:24 30° W 18:28:42 10° NNW visible
17 Dec ? 05:51:16 10° NE 05:54:10 21° E 05:57:02 10° SSE visible
17 Dec ? 18:00:44 10° S 18:04:21 58° W 18:08:00 10° NNW visible
18 Dec ? 05:31:32 10° ENE 05:33:01 12° E 05:34:29 10° ESE visible
18 Dec ? 17:39:42 10° SSE 17:43:21 71° ENE 17:47:03 10° N visible
19 Dec ? 06:42:14 10° N 06:45:56 78° WNW 06:49:35 10° SSW visible
19 Dec ? 17:19:01 10° SE 17:22:26 37° ENE 17:25:52 10° N visible
19 Dec ? 18:54:26 10° WSW 18:56:14 13° W 18:58:03 10° WNW visible
20 Dec ? 06:21:18 10° NNE 06:24:55 53° E 06:28:30 10° S visible
20 Dec ? 18:32:05 10° SSW 18:35:05 23° W 18:38:06 10° NW visible
21 Dec ? 06:00:38 10° NE 06:03:51 28° E 06:07:02 10° SSE visible
21 Dec ? 18:10:29 10° S 18:13:59 43° W 18:17:32 10° NNW visible
22 Dec ? 05:40:25 10° NE 05:42:43 16° E 05:44:59 10° SE visible
22 Dec ? 17:49:17 10° SSE 17:52:58 85° W 17:56:41 10° NNW visible
